Regional Weather Roundup
Issued by NWS

Home | Current Version | Previous Version | Graphics & Text | Print | Product List | Glossary On
Versions: 1 2 3 4 5 6 7 8 9 10 11 12 13 14 15 16 17 18 19 20 21 22 23 24 25 26 27
000
ASUS43 KDMX 310107
RWRIA

WEATHER ROUNDUP FOR IOWA
NATIONAL WEATHER SERVICE DES MOINES IA
800 PM CDT THU OCT 30 2014

NOTE: "FAIR" INDICATES FEW OR NO CLOUDS BELOW 12,000 FEET WITH NO
SIGNIFICANT WEATHER AND/OR OBSTRUCTIONS TO VISIBILITY.

* - THESE STATIONS ARE NOT NWS STATIONS...THUS NOT UNDER NWS
QUALITY CONTROL.  THEY ALSO DO NOT REPORT WEATHER SUCH
AS PRECIPITATION OR FOG.

IAZ001>003-012>014-020>022-031>034-043>046-310200-
   NORTHWEST IOWA

CITY           SKY/WX    TMP DP  RH WIND       PRES   REMARKS
CARROLL *      CLOUDY    50  39  66 N20G35    30.19R
CHEROKEE *     CLOUDY    45  39  81 N18G28    30.28R
DENISON *      CLOUDY    50  41  71 N21G28    30.21R
LE MARS *      CLOUDY    45  36  70 N26G32    30.32R
ORANGE CITY *  CLOUDY    43  34  70 N20G29    30.32R
SHELDON *      CLOUDY    39  32  75 N21G31    30.31R WCI  29
SIOUX CITY     CLOUDY    47  38  71 N24G32    30.30R
SPENCER        CLOUDY    42  34  73 N29G38    30.27R
STORM LAKE *   CLOUDY    45  37  76 N20G28    30.26R
$$

IAZ055>058-069>071-079>083-090>094-310200-
   SOUTHWEST IOWA

CITY           SKY/WX    TMP DP  RH WIND       PRES   REMARKS
ATLANTIC *     CLOUDY    54  39  58 N18G30    30.17R
AUDUBON *      CLOUDY    52  37  58 N15G22    30.19R
CLARINDA *     CLEAR     54  43  66 NW12G20   30.17R
COUNCIL BLFS * CLOUDY    48  41  76 NW17G24   30.20R
CRESTON *      CLEAR     52  37  58 N15       30.13R
HARLAN  *      CLOUDY    52  41  66 N20G29    30.22R
LAMONI         CLEAR     52  38  58 NW13      30.10R
RED OAK *      CLOUDY    54  43  66 NW16G25   30.17R
SHENANDOAH *   CLEAR     54  43  66 NW17G28   30.18R
$$

IAZ047>049-059>061-072>074-084-310200-
   CENTRAL IOWA

CITY           SKY/WX    TMP DP  RH WIND       PRES   REMARKS
AMES           CLOUDY    53  37  54 N16G24    30.14R
ANKENY *       CLOUDY    54  39  58 N21       30.12R
CHARITON *     CLOUDY    54  39  58 NW10      30.09R
DES MOINES     CLOUDY    55  37  50 N17       30.12R
GRINNELL*      CLOUDY    52  37  58 NE8       30.11R
KNOXVILLE *    CLOUDY    54  37  54 N5        30.08R
MARSHALLTOWN   CLOUDY    51  38  60 N10       30.12R
PELLA *        CLOUDY    54  39  58 NE3       30.10R
PERRY *        CLOUDY    52  37  58 N15G21    30.16R
$$

IAZ004>006-015-016-023>025-035-036-310200-
   NORTH CENTRAL IOWA

CITY           SKY/WX    TMP DP  RH WIND       PRES   REMARKS
ALGONA *       CLOUDY    46  39  76 N15G28    30.22R
CLARION *      CLOUDY    46  41  81 N20G26    30.18R
ESTHERVILLE    CLOUDY    42  34  73 N24G36    30.25R
FORT DODGE *   MOCLDY    48  37  66 N14G21    30.20R
MASON CITY     CLOUDY    47  37  68 NW14      30.18R
FOREST CITY *  CLOUDY    46  37  71 NW23      30.19R
IOWA FALLS *   CLOUDY    50  37  62 N18       30.16R
$$

IAZ007>011-017>019-026>030-037>042-050>054-066-310200-
   NORTHEAST IOWA

CITY           SKY/WX    TMP DP  RH WIND       PRES   REMARKS
CEDAR RAPIDS   CLOUDY    50  38  63 CALM      30.09R
CHARLES CITY * CLOUDY    46  36  66 NW13G20   30.15R
CLINTON *      CLOUDY    46  36  66 CALM      30.11S
DECORAH *      CLOUDY    45  37  76 NW8       30.11R
DUBUQUE        CLOUDY    45  39  79 N6        30.09R
MONTICELLO *   CLOUDY    48  39  71 CALM      30.09R
OELWEIN *      CLOUDY    48  39  71 N6        30.12R
WATERLOO       CLOUDY    49  38  65 N8        30.12R
$$

IAZ064-065-067-068-078-310200-
   EAST CENTRAL IOWA

CITY           SKY/WX    TMP DP  RH WIND       PRES   REMARKS
DAVENPORT      CLOUDY    48  37  65 CALM      30.09S
IOWA CITY      CLOUDY    50  39  66 NE5       30.11R
MT. PLEASANT * CLOUDY    48  41  76 NE3       30.08S
MUSCATINE *    CLOUDY    50  39  66 CALM      30.09S
QUAD CITIES    CLOUDY    47  38  71 S5        30.08R
$$

IAZ062-063-075>077-085>089-095>099-310200-
   SOUTHEAST IOWA

CITY           SKY/WX    TMP DP  RH WIND       PRES   REMARKS
BURLINGTON     CLOUDY    48  41  76 E5        30.07R
FAIRFIELD *    CLOUDY    50  41  71 NE6       30.08R
FORT MADISON * CLOUDY    52  45  76 E5        30.07S
KEOKUK *       CLOUDY    52  41  66 NE7       30.06R
OSKALOOSA *    CLOUDY    50  39  66 E5        30.08S
CENTERVILLE *  CLEAR     50  39  66 NE5       30.08R
OTTUMWA        CLOUDY    52  38  58 NE6       30.08R
WASHINGTON *   CLOUDY    50  43  76 CALM      30.09R
$$

ABBREVIATIONS USED IN REMARKS
   TC - TEMPERATURES IN CELSIUS
  WCI - WIND CHILL INDEX
   HX - HEAT INDEX
  VSB - VISIBILITY
$$




USA.gov is the U.S. government's official web portal to all federal, state and local government web resources and services.